Location: Rounton
(54.4000°N, 1.3500°W)
Time: 11:26:58
(UTC+01:00)

Vanguard 1 - Pass Details

Date: 29 February 2024
Orbit: 653 x 3825 km, 34.2° (Epoch: 22 April)

Event Time Altitude Azimuth Distance (km) Brightness Sun altitude
Rises 23:01:18 0° 263° (W) 6,224 14.4 -40.6°
Reaches altitude 10° 23:05:29 10° 255° (WSW) 5,608 13.9 -40.9°
Enters shadow 23:16:07 31° 220° (SW) 4,837 13.2 -41.5°
